This is the latest recevied weather packets stored in our database for station/object VK5GR-12. If no packets are shown the sender has not sent any weather packets the latest 10 day(s).
| Time | Temp. | Humidity | Pressure | Rain* | Wind** | Luminosity | Snow |
|---|---|---|---|---|---|---|---|
| 1777956515 | 17.22° C | 66% | 1022.8 hPa | 0 mm | - | 121 W/m² | - |
| 1777955611 | 17.22° C | 64% | 1022.7 hPa | 0 mm | - | 342 W/m² | - |
| 1777954706 | 17.22° C | 67% | 1022.7 hPa | 0 mm | - | 231 W/m² | - |
| 1777953805 | 16.67° C | 69% | 1022.8 hPa | 0 mm | - | 381 W/m² | - |
| 1777952900 | 16.11° C | 71% | 1023.2 hPa | 0 mm | - | 224 W/m² | - |
| 1777951996 | 16.67° C | 70% | 1023.2 hPa | 0 mm | - | 204 W/m² | - |
| 1777951093 | 16.11° C | 71% | 1023.3 hPa | 0 mm | - | 202 W/m² | - |
| 1777950189 | 15.56° C | 69% | 1023.3 hPa | 0 mm | - | 182 W/m² | - |
| 1777949286 | 16.11° C | 68% | 1023.5 hPa | 0 mm | - | 135 W/m² | - |
| 1777948383 | 16.11° C | 68% | 1023.7 hPa | 0 mm | - | 191 W/m² | - |
| 1777947480 | 16.11° C | 71% | 1023.7 hPa | 0 mm | - | 170 W/m² | - |
| 1777946580 | 16.67° C | 68% | 1023.9 hPa | 0 mm | - | 234 W/m² | - |
| 1777945678 | 15.56° C | 75% | 1023.9 hPa | 0 mm | - | 313 W/m² | - |
| 1777944774 | 15° C | 76% | 1024.2 hPa | 0 mm | - | 156 W/m² | - |
| 1777943871 | 15° C | 79% | 1023.8 hPa | 0 mm | - | 152 W/m² | - |
| 1777942966 | 13.89° C | 85% | 1023.6 hPa | 0 mm | - | 159 W/m² | - |
| 1777942063 | 13.89° C | 92% | 1023.5 hPa | 0 mm | - | 208 W/m² | - |
| 1777941160 | 13.89° C | 96% | 1023.5 hPa | 0 mm | - | 185 W/m² | - |
| 1777940257 | 13.33° C | 98% | 1023.4 hPa | 0 mm | - | 211 W/m² | - |
| 1777939355 | 13.89° C | 99% | 1023.2 hPa | 0 mm | - | 215 W/m² | - |
| 1777938450 | 13.33° C | 99% | 1023.2 hPa | 0 mm | - | 207 W/m² | - |
| 1777937545 | 13.33° C | 99% | 1023.2 hPa | 0 mm | - | 137 W/m² | - |
| 1777936642 | 13.33° C | 99% | 1023 hPa | 0 mm | - | 113 W/m² | - |
| 1777935739 | 13.33° C | 99% | 1023 hPa | 0 mm | - | 91 W/m² | - |
| 1777934837 | 12.78° C | 99% | 1022.8 hPa | 0 mm | - | 68 W/m² | - |
* Rain latest hour (hover to see other rain measurements)
** Current wind speed in m/s (hover to see current wind gust speed)